Wind_Speed
15 15 15 16 17 18 19 23 28 23 18 17 18 17 18 20 20 23 27 32 32 32 31 31 32 33 34 31 33 31 30 33
13 13 15 16 18 19 22 21 23 25 25 24 24 21 19 19 19 22 27 30 30 30 33 33 34 36 35 31 34 33 33 32
13 12 15 18 18 18 18 20 24 26 25 21 20 20 19 18 19 24 27 27 28 29 33 32 33 36 38 35 34 33 31 31
12 13 14 16 17 15 19 20 22 25 27 25 23 19 19 24 26 26 32 28 28 29 30 28 31 33 37 33 32 30 33 29
12 13 13 13 14 16 16 18 21 23 23 26 26 25 25 25 25 24 32 28 28 27 27 27 31 34 36 32 30 29 29 30
11 13 13 9 13 18 18 18 21 22 21 22 22 24 24 23 24 24 29 29 22 24 28 25 28 32 34 32 30 29 28 27
9 10 10 10 14 14 17 20 20 21 19 22 24 20 24 23 24 25 27 32 29 29 30 27 29 28 30 29 27 27 28 26
8 9 9 14 13 17 16 18 19 19 22 22 23 24 22 22 24 25 27 33 34 34 31 28 29 33 29 26 27 26 27 26
7 7 11 10 15 15 17 16 17 20 21 23 21 22 20 22 22 24 24 26 28 34 33 28 29 34 34 25 24 26 27 28
7 8 9 11 12 15 17 17 18 20 21 23 23 22 22 21 21 23 24 24 27 30 33 31 28 33 36 29 23 28 29 27
7 8 9 10 11 13 14 18 17 20 21 21 21 21 21 21 21 23 25 26 28 29 32 34 29 31 35 30 24 24 29 30
6 7 8 10 12 13 15 17 18 18 18 19 20 21 21 20 20 22 25 26 28 29 31 33 31 33 36 25 25 29 27 31
5 6 8 10 12 13 14 16 16 17 18 19 20 20 20 20 20 22 24 25 26 26 31 33 33 34 36 25 24 26 27 33
4 6 8 10 11 12 13 14 15 16 17 19 20 20 20 20 20 21 23 25 25 29 32 35 34 38 34 27 27 27 20 29
4 5 7 8 10 11 12 14 15 16 16 17 19 20 20 20 20 20 22 24 27 31 34 35 35 39 35 24 25 26 22 26
3 4 6 8 9 10 11 14 15 15 16 17 18 19 18 19 20 20 21 26 29 30 31 33 36 39 41 23 23 26 24 24
1 3 5 6 7 9 11 13 14 14 15 16 17 19 19 20 21 21 22 25 28 27 27 31 34 37 42 20 18 24 25 26
1 2 4 5 7 8 10 11 13 14 15 15 17 18 20 21 22 22 24 26 27 27 26 31 32 36 42 35 20 16 23 26
1 0 2 4 6 8 9 10 12 13 14 15 16 17 19 22 23 24 24 25 25 24 26 30 32 35 40 37 31 24 17 25
Wind_Direction
24 22 26 23 18 2 8 9 357 16 2 5 357 5 1 347 346 346 329 331 343 347 343 344 344 344 344 345 336 339 333 329
21 26 25 21 11 15 17 8 359 4 14 4 5 4 357 351 354 335 331 339 349 354 351 352 353 352 347 343 343 342 341 338
15 19 22 16 14 19 15 9 2 1 12 1 6 6 355 348 344 337 347 349 355 359 357 356 351 349 351 348 347 343 342 343
13 14 13 18 16 10 14 12 2 356 4 359 7 6 1 356 356 349 349 350 2 358 357 1 358 351 350 349 349 345 341 339
18 15 14 17 13 9 13 4 2 6 7 0 11 5 1 358 356 349 341 353 359 349 1 5 357 355 354 349 349 347 342 339
22 18 18 22 4 13 351 11 8 10 2 358 5 8 4 357 356 353 343 350 349 351 359 3 358 354 351 351 349 352 347 342
19 18 13 21 10 1 7 10 5 5 355 355 6 11 2 357 356 358 351 345 354 358 360 4 356 349 347 348 351 352 352 351
15 16 26 12 2 360 7 7 3 355 357 9 5 9 4 357 357 357 356 350 354 354 359 5 352 352 350 354 356 351 353 352
24 40 29 9 8 359 7 9 1 356 360 8 9 1 0 358 356 354 351 351 352 350 355 359 357 350 352 357 355 355 356 356
47 42 31 14 8 4 5 6 3 2 3 8 4 353 360 355 353 354 353 353 351 355 351 355 359 348 353 358 0 357 359 359
47 38 28 12 6 3 1 3 3 6 4 2 355 358 354 354 355 356 356 357 356 356 347 349 359 352 355 3 6 4 358 358
50 34 22 12 6 8 356 5 7 8 358 357 352 353 353 353 356 358 359 358 356 355 346 350 0 354 357 1 7 12 8 352
48 28 16 7 4 5 3 4 5 8 355 358 352 354 355 355 359 1 1 359 357 350 348 1 3 353 359 7 359 358 11 1
34 16 8 5 2 6 5 3 4 9 357 360 354 357 357 357 0 4 4 1 353 351 2 6 1 355 3 15 14 9 1 355
28 8 4 4 6 5 7 9 0 6 0 1 356 357 357 357 0 5 7 357 355 6 8 5 1 353 4 15 17 16 18 359
19 3 1 7 7 13 10 9 358 3 3 1 359 357 356 357 3 8 10 1 7 4 4 3 357 356 2 10 17 16 9 6
19 0 7 8 10 17 12 10 357 2 5 3 359 358 358 1 5 7 12 6 5 4 4 2 359 355 358 14 17 19 10 7
72 15 12 11 14 15 15 9 358 2 4 4 360 360 359 3 4 12 12 5 3 6 3 0 3 352 356 10 21 27 24 10
145 92 28 12 21 14 12 11 3 1 2 2 0 0 359 1 6 12 8 3 1 4 2 358 2 354 355 7 15 22 33 20
Height
1584 1582 1579 1576 1572 1568 1564 1560 1554 1550 1547 1543 1539 1537 1535 1531 1529 1523 1516 1510 1504 1499 1495 1489 1482 1476 1473 1469 1464 1459 1453 1446
1585 1583 1579 1576 1572 1568 1564 1562 1557 1550 1547 1545 1539 1537 1534 1530 1527 1521 1515 1509 1504 1499 1494 1488 1482 1478 1473 1468 1462 1456 1450 1445
1586 1583 1580 1577 1574 1570 1566 1563 1558 1552 1546 1545 1542 1541 1537 1531 1526 1520 1515 1510 1504 1500 1494 1488 1483 1478 1473 1467 1460 1454 1450 1445
1585 1583 1580 1579 1576 1570 1566 1562 1557 1552 1547 1544 1540 1539 1537 1531 1526 1519 1515 1509 1504 1500 1494 1489 1484 1478 1472 1466 1461 1455 1448 1445
1585 1584 1580 1579 1576 1570 1566 1562 1557 1553 1549 1543 1541 1538 1535 1532 1529 1522 1515 1510 1505 1500 1494 1489 1484 1479 1473 1466 1461 1455 1450 1444
1585 1584 1582 1577 1574 1571 1566 1563 1559 1556 1552 1546 1542 1538 1536 1533 1528 1524 1516 1510 1505 1500 1493 1489 1484 1479 1473 1466 1460 1455 1450 1445
1584 1584 1582 1577 1574 1570 1568 1564 1561 1557 1552 1548 1544 1538 1536 1532 1528 1523 1517 1509 1504 1499 1493 1488 1484 1478 1472 1465 1460 1455 1450 1445
1583 1583 1580 1578 1573 1570 1568 1564 1561 1557 1552 1547 1545 1541 1536 1533 1528 1523 1518 1511 1504 1499 1494 1489 1484 1477 1470 1464 1459 1454 1449 1444
1582 1581 1580 1577 1575 1570 1567 1564 1560 1557 1554 1548 1548 1544 1538 1533 1528 1524 1519 1514 1508 1502 1495 1490 1485 1478 1470 1463 1459 1455 1449 1444
1582 1580 1579 1577 1574 1571 1568 1564 1561 1557 1554 1548 1548 1545 1540 1535 1529 1525 1520 1515 1510 1503 1497 1491 1485 1478 1470 1463 1458 1454 1449 1444
1581 1580 1578 1576 1574 1572 1568 1564 1561 1557 1556 1553 1548 1546 1541 1536 1530 1525 1520 1516 1510 1504 1498 1491 1485 1478 1471 1464 1458 1454 1449 1443
1581 1580 1578 1576 1574 1572 1569 1564 1562 1558 1557 1553 1550 1546 1541 1537 1532 1527 1521 1517 1511 1505 1498 1492 1485 1479 1471 1464 1459 1454 1449 1444
1579 1579 1577 1576 1574 1571 1569 1566 1562 1559 1559 1553 1550 1546 1542 1537 1532 1527 1523 1518 1513 1507 1500 1492 1486 1480 1471 1464 1459 1455 1450 1445
1578 1578 1577 1574 1573 1570 1569 1565 1562 1557 1557 1553 1551 1546 1541 1537 1532 1528 1523 1520 1514 1508 1501 1494 1488 1481 1472 1466 1461 1455 1451 1448
1577 1577 1575 1573 1572 1571 1569 1565 1565 1558 1556 1553 1550 1547 1542 1537 1533 1528 1524 1520 1515 1509 1503 1497 1490 1483 1474 1468 1463 1458 1453 1450
1577 1576 1575 1573 1571 1570 1568 1565 1566 1560 1556 1553 1550 1547 1542 1538 1533 1529 1525 1521 1516 1510 1504 1499 1492 1485 1476 1470 1465 1460 1457 1452
1576 1576 1574 1573 1571 1568 1566 1565 1566 1562 1556 1554 1551 1547 1543 1538 1534 1530 1526 1522 1518 1513 1507 1501 1494 1487 1479 1471 1466 1460 1459 1453
1575 1575 1575 1572 1571 1568 1565 1564 1565 1562 1557 1554 1552 1548 1543 1539 1536 1531 1527 1523 1519 1514 1509 1503 1497 1489 1481 1473 1466 1461 1458 1455
1573 1573 1574 1573 1570 1568 1567 1564 1564 1562 1559 1555 1552 1548 1545 1541 1537 1533 1529 1525 1521 1516 1511 1505 1499 1491 1483 1474 1467 1462 1459 1456